Time,TemperatureF,DewpointF,PressureIn,WindDirection,WindDirectionDegrees,WindSpeedMPH,WindSpeedGustMPH,Humidity,HourlyPrecipIn,Conditions,Clouds,dailyrainin,SoftwareType,DateUTC
2013-03-16 00:21:00,3.0,-13.0,29.82,NE,45,5.8,-999.0,46,-99.99,,,0.00,Acu-Link.com,2013-03-16 08:21:00,
2013-03-16 01:48:00,2.7,-12.9,29.83,North,0,7.3,-999.0,47,-99.99,,,0.00,Acu-Link.com,2013-03-16 09:48:00,
2013-03-16 02:06:00,1.8,-13.3,29.83,NNE,22,8.3,-999.0,48,-99.99,,,0.00,Acu-Link.com,2013-03-16 10:06:00,
2013-03-16 02:49:00,2.5,-12.7,29.84,North,0,5.8,-999.0,48,-99.99,,,0.00,Acu-Link.com,2013-03-16 10:49:00,
2013-03-16 03:04:00,4.3,-11.0,29.84,ENE,67,8.9,-999.0,48,-99.99,,,0.00,Acu-Link.com,2013-03-16 11:04:00,
2013-03-16 04:49:00,-1.7,-13.9,29.86,North,0,2.7,-999.0,55,-99.99,,,0.00,Acu-Link.com,2013-03-16 12:49:00,
2013-03-16 05:15:00,-2.0,-13.8,29.86,North,0,6.3,-999.0,56,-99.99,,,0.00,Acu-Link.com,2013-03-16 13:15:00,
2013-03-16 05:52:00,-0.9,-13.5,29.86,North,0,5.8,-999.0,54,-99.99,,,0.00,Acu-Link.com,2013-03-16 13:52:00,
2013-03-16 06:08:00,-2.0,-14.5,29.87,North,0,6.8,-999.0,54,-99.99,,,0.00,Acu-Link.com,2013-03-16 14:08:00,
2013-03-16 06:23:00,-2.6,-15.1,29.87,North,0,5.3,-999.0,54,-99.99,,,0.00,Acu-Link.com,2013-03-16 14:23:00,
2013-03-16 06:38:00,-2.7,-15.2,29.88,North,0,6.3,-999.0,54,-99.99,,,0.00,Acu-Link.com,2013-03-16 14:38:00,
2013-03-16 06:56:00,-2.4,-14.9,29.88,North,0,5.3,-999.0,54,-99.99,,,0.00,Acu-Link.com,2013-03-16 14:56:00,
2013-03-16 07:13:00,-2.7,-14.8,29.89,North,0,4.7,-999.0,55,-99.99,,,0.00,Acu-Link.com,2013-03-16 15:13:00,
2013-03-16 07:32:00,-3.6,-15.7,29.89,North,0,5.8,-999.0,55,-99.99,,,0.00,Acu-Link.com,2013-03-16 15:32:00,
2013-03-16 07:47:00,-3.6,-15.7,29.89,North,0,6.3,-999.0,55,-99.99,,,0.00,Acu-Link.com,2013-03-16 15:47:00,
2013-03-16 08:02:00,-4.0,-16.0,29.89,North,0,6.3,-999.0,55,-99.99,,,0.00,Acu-Link.com,2013-03-16 16:02:00,
2013-03-16 08:17:00,-4.7,-16.3,29.89,NNE,22,4.2,-999.0,56,-99.99,,,0.00,Acu-Link.com,2013-03-16 16:17:00,
2013-03-16 08:32:00,-3.5,-15.2,29.89,North,0,6.3,-999.0,56,-99.99,,,0.00,Acu-Link.com,2013-03-16 16:32:00,
2013-03-16 08:48:00,-2.4,-14.5,29.90,North,0,5.3,-999.0,55,-99.99,,,0.00,Acu-Link.com,2013-03-16 16:48:00,
2013-03-16 09:03:00,-0.8,-13.8,29.90,North,0,3.7,-999.0,53,-99.99,,,0.00,Acu-Link.com,2013-03-16 17:03:00,
2013-03-16 09:18:00,0.0,-13.4,29.89,North,0,4.7,-999.0,52,-99.99,,,0.00,Acu-Link.com,2013-03-16 17:18:00,
2013-03-16 09:33:00,1.8,-12.1,29.89,North,0,5.8,-999.0,51,-99.99,,,0.00,Acu-Link.com,2013-03-16 17:33:00,
2013-03-16 09:48:00,3.2,-11.6,29.88,NNE,22,5.8,-999.0,49,-99.99,,,0.00,Acu-Link.com,2013-03-16 17:48:00,
2013-03-16 10:04:00,4.8,-11.0,29.86,North,0,5.8,-999.0,47,-99.99,,,0.00,Acu-Link.com,2013-03-16 18:04:00,
2013-03-16 10:19:00,7.2,-9.2,29.87,North,0,7.3,-999.0,46,-99.99,,,0.00,Acu-Link.com,2013-03-16 18:19:00,
2013-03-16 10:34:00,9.0,-8.4,29.85,NE,45,6.8,-999.0,44,-99.99,,,0.00,Acu-Link.com,2013-03-16 18:34:00,
2013-03-16 10:49:00,11.5,-7.6,29.84,NNE,22,5.3,-999.0,41,-99.99,,,0.00,Acu-Link.com,2013-03-16 18:49:00,
2013-03-16 11:05:00,13.6,-6.2,29.83,NE,45,7.8,-999.0,40,-99.99,,,0.00,Acu-Link.com,2013-03-16 19:05:00,
2013-03-16 11:20:00,13.5,-6.3,29.83,NW,315,5.8,-999.0,40,-99.99,,,0.00,Acu-Link.com,2013-03-16 19:20:00,
2013-03-16 11:35:00,15.1,-5.3,29.84,NNE,22,10.4,-999.0,39,-99.99,,,0.00,Acu-Link.com,2013-03-16 19:35:00,
2013-03-16 11:50:00,16.7,-4.4,29.84,NNE,22,6.8,-999.0,38,-99.99,,,0.00,Acu-Link.com,2013-03-16 19:50:00,
2013-03-16 12:05:00,17.8,-4.6,29.85,NNE,22,7.3,-999.0,36,-99.99,,,0.00,Acu-Link.com,2013-03-16 20:05:00,
2013-03-16 12:21:00,18.9,-3.6,29.85,NNE,22,8.9,-999.0,36,-99.99,,,0.00,Acu-Link.com,2013-03-16 20:21:00,
2013-03-16 13:06:00,22.6,-2.1,29.88,NNE,22,5.3,-999.0,33,-99.99,,,0.00,Acu-Link.com,2013-03-16 21:06:00,
2013-03-16 13:22:00,23.7,-1.8,29.88,ESE,112,7.3,-999.0,32,-99.99,,,0.00,Acu-Link.com,2013-03-16 21:22:00,
2013-03-16 13:37:00,23.2,-1.6,29.89,SSE,157,7.3,-999.0,33,-99.99,,,0.00,Acu-Link.com,2013-03-16 21:37:00,
2013-03-16 13:52:00,23.5,-2.0,29.89,SSE,157,5.3,-999.0,32,-99.99,,,0.00,Acu-Link.com,2013-03-16 21:52:00,
2013-03-16 14:07:00,24.1,-1.4,29.89,SSE,157,3.7,-999.0,32,-99.99,,,0.00,Acu-Link.com,2013-03-16 22:07:00,
2013-03-16 14:23:00,25.2,-0.5,29.89,ESE,112,5.8,-999.0,32,-99.99,,,0.00,Acu-Link.com,2013-03-16 22:23:00,
2013-03-16 14:38:00,26.1,-1.0,29.89,East,90,4.2,-999.0,30,-99.99,,,0.00,Acu-Link.com,2013-03-16 22:38:00,
2013-03-16 14:53:00,26.2,-0.3,29.90,ESE,112,7.3,-999.0,31,-99.99,,,0.00,Acu-Link.com,2013-03-16 22:53:00,
2013-03-16 15:08:00,26.1,-0.4,29.90,ENE,67,3.2,-999.0,31,-99.99,,,0.00,Acu-Link.com,2013-03-16 23:08:00,
2013-03-16 15:23:00,27.3,0.7,29.90,NE,45,6.3,-999.0,31,-99.99,,,0.00,Acu-Link.com,2013-03-16 23:23:00,
2013-03-16 15:39:00,26.6,-0.6,29.90,NNE,22,5.3,-999.0,30,-99.99,,,0.00,Acu-Link.com,2013-03-16 23:39:00,
2013-03-16 15:54:00,27.5,-0.5,29.91,North,0,3.7,-999.0,29,-99.99,,,0.00,Acu-Link.com,2013-03-16 23:54:00,
2013-03-16 16:09:00,26.6,0.1,29.90,SSE,157,3.2,-999.0,31,-99.99,,,0.00,Acu-Link.com,2013-03-17 00:09:00,
2013-03-16 16:25:00,27.5,-1.3,29.90,NNW,337,4.2,-999.0,28,-99.99,,,0.00,Acu-Link.com,2013-03-17 00:25:00,
2013-03-16 16:40:00,27.7,-1.1,29.90,WNW,292,4.7,-999.0,28,-99.99,,,0.00,Acu-Link.com,2013-03-17 00:40:00,
2013-03-16 16:55:00,27.9,-0.9,29.91,NW,315,6.8,-999.0,28,-99.99,,,0.00,Acu-Link.com,2013-03-17 00:55:00,
2013-03-16 17:11:00,27.1,-0.2,29.91,West,270,7.3,-999.0,30,-99.99,,,0.00,Acu-Link.com,2013-03-17 01:11:00,
2013-03-16 18:11:00,27.1,0.5,29.93,WSW,247,4.2,-999.0,31,-99.99,,,0.00,Acu-Link.com,2013-03-17 02:11:00,
2013-03-16 18:27:00,27.3,0.7,29.92,WSW,247,2.7,-999.0,31,-99.99,,,0.00,Acu-Link.com,2013-03-17 02:27:00,
2013-03-16 18:42:00,27.3,0.7,29.93,SW,225,6.3,-999.0,31,-99.99,,,0.00,Acu-Link.com,2013-03-17 02:42:00,
2013-03-16 18:57:00,25.3,1.5,29.93,SW,225,5.8,-999.0,35,-99.99,,,0.00,Acu-Link.com,2013-03-17 02:57:00,
2013-03-16 19:12:00,24.4,1.3,29.93,SW,225,4.2,-999.0,36,-99.99,,,0.00,Acu-Link.com,2013-03-17 03:12:00,
2013-03-16 19:27:00,23.4,1.0,29.94,SW,225,3.7,-999.0,37,-99.99,,,0.00,Acu-Link.com,2013-03-17 03:27:00,
2013-03-16 19:43:00,21.7,0.6,29.95,SSW,202,5.3,-999.0,39,-99.99,,,0.00,Acu-Link.com,2013-03-17 03:43:00,
2013-03-16 19:58:00,19.9,0.6,29.95,SW,225,6.3,-999.0,42,-99.99,,,0.00,Acu-Link.com,2013-03-17 03:58:00,
2013-03-16 20:13:00,18.9,0.1,29.96,SSW,202,4.7,-999.0,43,-99.99,,,0.00,Acu-Link.com,2013-03-17 04:13:00,
2013-03-16 20:28:00,17.8,-0.4,29.96,SW,225,4.2,-999.0,44,-99.99,,,0.00,Acu-Link.com,2013-03-17 04:28:00,
2013-03-16 20:44:00,16.9,-0.7,29.97,SW,225,4.2,-999.0,45,-99.99,,,0.00,Acu-Link.com,2013-03-17 04:44:00,
2013-03-16 20:59:00,16.3,0.5,29.98,SW,225,2.2,-999.0,49,-99.99,,,0.00,Acu-Link.com,2013-03-17 04:59:00,
2013-03-16 21:15:00,14.2,-1.8,29.98,SW,225,0.0,-999.0,48,-99.99,,,0.00,Acu-Link.com,2013-03-17 05:15:00,
2013-03-16 21:30:00,12.6,-2.5,29.97,NNW,337,2.7,-999.0,50,-99.99,,,0.00,Acu-Link.com,2013-03-17 05:30:00,
2013-03-16 21:45:00,9.7,-4.4,29.97,North,0,3.2,-999.0,52,-99.99,,,0.00,Acu-Link.com,2013-03-17 05:45:00,
2013-03-16 22:00:00,10.6,-2.3,29.97,North,0,2.2,-999.0,55,-99.99,,,0.00,Acu-Link.com,2013-03-17 06:00:00,
2013-03-16 22:15:00,9.0,-3.5,29.97,North,0,0.0,-999.0,56,-99.99,,,0.00,Acu-Link.com,2013-03-17 06:15:00,
2013-03-16 22:31:00,7.5,-3.8,29.97,North,0,1.7,-999.0,59,-99.99,,,0.00,Acu-Link.com,2013-03-17 06:31:00,
2013-03-16 23:01:00,4.6,-5.5,29.98,North,0,1.7,-999.0,62,-99.99,,,0.00,Acu-Link.com,2013-03-17 07:01:00,
2013-03-16 23:16:00,3.4,-7.0,29.99,North,0,2.7,-999.0,61,-99.99,,,0.00,Acu-Link.com,2013-03-17 07:16:00,